Weather History for KRQB - October, 2011

Change the Weather History Date:

Monday, October 31, 2011

  Actual Average Record
Temperature  
Mean Temperature 46 °F -  
Max Temperature 51 °F 54 °F 71 °F (1979)
Min Temperature 41 °F 33 °F 19 °F (1988)
Degree Days  
Heating Degree Days 19    
Moisture  
Dew Point 39 °F    
Average Humidity 78    
Maximum Humidity 100    
Minimum Humidity 58    
Precipitation  
Precipitation 0.00 in - - ()
Sea Level Pressure  
Sea Level Pressure 29.98 in    
Wind  
Wind Speed 6 mph (SSW)    
Max Wind Speed 13 mph    
Max Gust Speed 21 mph    
Visibility 10 miles    
Events Rain    
Averages and records for this station are not official NWS values.
T = Trace of Precipitation, MM = Missing Value Source: NWS Daily Summary

Daily Weather History Graph

Daily Weather History Graph

Search for Another Location

Airport or City:

Trip Planner

Search our weather history database for the weather conditions in past years. The results will help you decide how hot, cold, wet, or windy it might be!

Date:

Astronomy

Oct. 31, 2011 Rise Set
Actual Time 8:16 AM EDT 6:34 PM EDT
Civil Twilight 7:46 AM EDT 7:04 PM EDT
Nautical Twilight 7:12 AM EDT 7:37 PM EDT
Astronomical Twilight 6:39 AM EDT 8:11 PM EDT
Moon 1:27 PM EDT (10/31) 11:05 PM EDT (10/31)
Length of Visible Light 11h 17m
Length of Day
10h 18m
Waxing Crescent, 29% of the Moon is Illuminated
Oct 31
Waxing Crescent
Nov 2
First Quarter
Nov 10
Full
Nov 18
Last Quarter
Nov 25
New

Hourly Weather History & Observations

Time (EDT) Temp. Windchill Dew Point Humidity Pressure Visibility Wind Dir Wind Speed Gust Speed Precip Events Conditions
12:13 AM 42.8 °F 37.0 °F 41.0 °F 93% 29.96 in 10.0 mi South 10.4 mph 19.6 mph N/A Rain Rain
12:33 AM 42.8 °F 36.6 °F 41.0 °F 93% 29.96 in 10.0 mi South 11.5 mph 19.6 mph N/A   Drizzle
12:53 AM 42.8 °F 38.0 °F 41.0 °F 93% 29.96 in 10.0 mi South 8.1 mph 20.7 mph N/A   Overcast
1:13 AM 42.8 °F 36.6 °F 41.0 °F 93% 29.96 in 10.0 mi SSW 11.5 mph 20.7 mph N/A   Overcast
1:33 AM 42.8 °F 36.2 °F 41.0 °F 93% 29.97 in 10.0 mi South 12.7 mph 17.3 mph N/A   Overcast
1:53 AM 42.8 °F 39.3 °F 41.0 °F 93% 29.97 in 10.0 mi South 5.8 mph - N/A   Overcast
2:13 AM 42.8 °F 39.3 °F 41.0 °F 93% 29.97 in 10.0 mi South 5.8 mph - N/A   Overcast
2:33 AM 44.6 °F 39.2 °F 41.0 °F 87% 29.96 in 10.0 mi South 10.4 mph 17.3 mph N/A   Overcast
2:53 AM 44.6 °F 39.7 °F 41.0 °F 87% 29.96 in 10.0 mi South 9.2 mph - N/A   Overcast
3:13 AM 44.6 °F 40.7 °F 41.0 °F 87% 29.96 in 10.0 mi South 6.9 mph - N/A   Overcast
3:33 AM 44.6 °F 40.7 °F 41.0 °F 87% 29.96 in 10.0 mi South 6.9 mph 16.1 mph N/A   Overcast
3:53 AM 44.6 °F 38.8 °F 41.0 °F 87% 29.96 in 10.0 mi South 11.5 mph 18.4 mph N/A   Overcast
4:13 AM 44.6 °F 40.2 °F 41.0 °F 87% 29.96 in 10.0 mi South 8.1 mph 19.6 mph N/A Rain Light Rain
4:33 AM 42.8 °F 38.0 °F 41.0 °F 93% 29.96 in 10.0 mi South 8.1 mph - N/A   Overcast
4:54 AM 42.8 °F 39.3 °F 41.0 °F 93% 29.96 in 10.0 mi SSE 5.8 mph - N/A   Overcast
5:13 AM 42.8 °F 40.1 °F 41.0 °F 93% 29.96 in 10.0 mi SSE 4.6 mph - N/A   Overcast
5:33 AM 42.8 °F 40.1 °F 41.0 °F 93% 29.96 in 10.0 mi South 4.6 mph - N/A   Overcast
6:13 AM 42.8 °F 39.3 °F 41.0 °F 93% 29.96 in 10.0 mi SSE 5.8 mph - N/A   Overcast
6:33 AM 42.8 °F 41.1 °F 41.0 °F 93% 29.96 in 10.0 mi SE 3.5 mph - N/A   Overcast
6:53 AM 42.8 °F 41.1 °F 41.0 °F 93% 29.96 in 10.0 mi SSE 3.5 mph - N/A   Overcast
7:13 AM 42.8 °F 40.1 °F 41.0 °F 93% 29.97 in 10.0 mi SSE 4.6 mph - N/A   Overcast
7:53 AM 42.8 °F - 41.0 °F 93% 29.97 in 10.0 mi Calm Calm - N/A   Overcast
8:13 AM 42.8 °F - 41.0 °F 93% 29.97 in 10.0 mi Calm Calm - N/A   Overcast
8:33 AM 42.8 °F - 41.0 °F 93% 29.97 in 10.0 mi Calm Calm - N/A   Overcast
8:53 AM 41.0 °F - 41.0 °F 100% 29.98 in 7.0 mi Calm Calm - N/A   Overcast
9:13 AM 42.8 °F - 41.0 °F 93% 29.98 in 10.0 mi Calm Calm - N/A   Scattered Clouds
9:33 AM 42.8 °F 41.1 °F 41.0 °F 93% 29.98 in 10.0 mi SSE 3.5 mph - N/A   Scattered Clouds
9:53 AM 44.6 °F 42.2 °F 39.2 °F 81% 29.99 in 10.0 mi South 4.6 mph - N/A   Clear
10:13 AM 44.6 °F 41.4 °F 37.4 °F 76% 29.99 in 10.0 mi South 5.8 mph - N/A   Clear
10:33 AM 44.6 °F 39.7 °F 37.4 °F 76% 29.99 in 10.0 mi South 9.2 mph 16.1 mph N/A   Clear
10:53 AM 46.4 °F 42.9 °F 37.4 °F 71% 30.00 in 10.0 mi South 6.9 mph - N/A   Clear
11:13 AM 46.4 °F 42.4 °F 37.4 °F 71% 29.99 in 10.0 mi SSE 8.1 mph - N/A   Scattered Clouds
11:33 AM 46.4 °F 42.9 °F 37.4 °F 71% 29.99 in 10.0 mi SSE 6.9 mph - N/A   Scattered Clouds
11:53 AM 48.2 °F - 37.4 °F 66% 29.99 in 10.0 mi Calm Calm - N/A   Clear
12:13 PM 50.0 °F - 37.4 °F 62% 29.99 in 10.0 mi Calm Calm - N/A   Clear
12:33 PM 50.0 °F - 39.2 °F 66% 29.99 in 10.0 mi Calm Calm - N/A   Clear
12:53 PM 50.0 °F - 39.2 °F 66% 29.99 in 10.0 mi Calm Calm - N/A   Scattered Clouds
1:13 PM 50.0 °F - 39.2 °F 66% 29.99 in 10.0 mi South 4.6 mph - N/A   Overcast
1:34 PM 50.0 °F - 37.4 °F 62% 29.99 in 10.0 mi South 4.6 mph - N/A   Overcast
1:53 PM 50.0 °F - 37.4 °F 62% 29.98 in 10.0 mi WNW 4.6 mph - N/A   Overcast
2:13 PM 50.0 °F - 37.4 °F 62% 29.98 in 10.0 mi West 4.6 mph - N/A   Overcast
2:34 PM 50.0 °F - 37.4 °F 62% 29.98 in 10.0 mi West 4.6 mph - N/A   Overcast
2:53 PM 50.0 °F - 37.4 °F 62% 29.99 in 10.0 mi WSW 4.6 mph - N/A   Overcast
3:13 PM 50.0 °F - 37.4 °F 62% 29.99 in 10.0 mi West 3.5 mph - N/A   Overcast
3:34 PM 51.8 °F - 37.4 °F 58% 29.99 in 10.0 mi West 3.5 mph - N/A   Overcast
3:53 PM 50.0 °F - 37.4 °F 62% 30.00 in 10.0 mi SW 4.6 mph - N/A   Overcast
4:13 PM 50.0 °F - 37.4 °F 62% 30.00 in 10.0 mi Calm Calm - N/A   Overcast
4:33 PM 50.0 °F - 37.4 °F 62% 30.00 in 10.0 mi WSW 5.8 mph - N/A   Overcast
4:53 PM 50.0 °F - 37.4 °F 62% 30.00 in 10.0 mi WSW 3.5 mph - N/A   Overcast
5:13 PM 50.0 °F - 37.4 °F 62% 30.01 in 10.0 mi Calm Calm - N/A   Overcast
5:34 PM 50.0 °F - 35.6 °F 58% 30.01 in 10.0 mi WSW 4.6 mph - N/A   Overcast
5:53 PM 50.0 °F - 37.4 °F 62% 30.02 in 10.0 mi Calm Calm - N/A   Overcast
6:13 PM 50.0 °F - 35.6 °F 58% 30.03 in 10.0 mi WSW 3.5 mph - N/A   Overcast
6:33 PM 48.2 °F - 37.4 °F 66% 30.03 in 10.0 mi Calm Calm - N/A   Overcast
6:53 PM 48.2 °F - 37.4 °F 66% 30.04 in 10.0 mi Calm Calm - N/A   Overcast
7:13 PM 46.4 °F - 37.4 °F 71% 30.05 in 10.0 mi Calm Calm - N/A   Overcast
7:34 PM 46.4 °F 42.4 °F 37.4 °F 71% 30.06 in 10.0 mi West 8.1 mph - N/A   Overcast
7:53 PM 44.6 °F 41.4 °F 37.4 °F 76% 30.07 in 10.0 mi West 5.8 mph - N/A   Overcast
8:13 PM 44.6 °F 40.7 °F 37.4 °F 76% 30.08 in 10.0 mi West 6.9 mph - N/A   Overcast
8:33 PM 44.6 °F - 37.4 °F 76% 30.08 in 10.0 mi Calm Calm - N/A   Overcast
8:53 PM 44.6 °F - 39.2 °F 81% 30.08 in 10.0 mi Calm Calm - N/A   Overcast
9:13 PM 44.6 °F - 37.4 °F 76% 30.08 in 10.0 mi Calm Calm - N/A   Overcast
9:34 PM 42.8 °F - 37.4 °F 81% 30.09 in 10.0 mi Calm Calm - N/A   Overcast
9:53 PM 42.8 °F - 37.4 °F 81% 30.10 in 10.0 mi Calm Calm - N/A   Overcast
10:13 PM 42.8 °F 41.1 °F 37.4 °F 81% 30.11 in 10.0 mi SW 3.5 mph - N/A   Overcast
10:33 PM 42.8 °F - 37.4 °F 81% 30.11 in 10.0 mi Calm Calm - N/A   Mostly Cloudy
10:53 PM 41.0 °F - 35.6 °F 81% 30.11 in 10.0 mi Calm Calm - N/A   Clear
11:13 PM 35.6 °F 30.7 °F 33.8 °F 93% 30.11 in 7.0 mi South 5.8 mph - N/A   Clear
11:33 PM 35.6 °F - 33.8 °F 93% 30.11 in 7.0 mi Calm Calm - N/A   Clear
11:53 PM 33.8 °F 27.0 °F 33.8 °F 100% 30.11 in 3.0 mi SSW 8.1 mph - N/A   Clear